Date,TemperatureHighF,TemperatureAvgF,TemperatureLowF,DewpointHighF,DewpointAvgF,DewpointLowF,HumidityHigh,HumidityAvg,HumidityLow,PressureMaxIn,PressureMinIn,WindSpeedMaxMPH,WindSpeedAvgMPH,GustSpeedMaxMPH,PrecipitationSumIn
2013-10-1,91.8,76.9,66.1,74.5,69.5,60.2,95,80,45,29.92,29.82,0,0,0,0.00
2013-10-2,91.3,79.8,74.8,74.8,72.0,68.3,94,79,50,29.96,29.84,0,0,0,0.11
2013-10-3,90.5,80.0,74.2,73.1,70.9,67.2,93,75,51,29.93,29.82,0,0,0,0.00
2013-10-4,91.6,78.7,70.4,72.3,70.0,68.6,94,76,49,29.92,29.82,0,0,0,0.00
2013-10-5,88.5,75.9,62.7,72.1,65.8,46.0,94,73,46,30.04,29.87,0,0,0,0.00
2013-10-6,81.1,64.3,53.7,54.7,47.9,38.4,94,60,24,30.14,30.02,0,0,0,0.20
2013-10-7,85.0,63.5,48.7,54.5,47.5,34.2,92,64,17,30.17,30.04,0,0,0,0.00
2013-10-8,85.2,64.9,52.0,55.6,51.7,42.4,94,68,25,30.09,29.98,0,0,0,0.00
2013-10-9,85.0,66.9,53.1,64.0,57.5,51.0,95,75,43,30.06,29.93,0,0,0,0.00
2013-10-10,86.5,72.3,61.0,68.0,63.5,58.8,94,76,49,30.03,29.87,0,0,0,0.00
2013-10-11,89.0,77.2,70.4,73.6,70.1,65.0,89,79,57,29.93,29.82,0,0,0,0.00
2013-10-12,91.3,79.1,74.4,74.5,72.4,69.5,93,81,50,30.00,29.89,0,0,0,0.00
2013-10-13,77.2,72.4,65.6,73.4,70.2,63.5,96,93,85,30.16,30.00,0,0,0,8.56
2013-10-14,83.5,74.6,71.6,75.8,71.4,68.9,96,90,70,30.09,29.91,0,0,0,98.98
2013-10-15,84.8,74.7,64.2,72.1,68.9,58.9,95,83,56,29.98,29.87,0,0,0,19.26
2013-10-16,64.8,58.5,55.5,58.7,56.3,53.9,96,92,82,30.07,29.93,0,0,0,98.97
2013-10-17,74.7,59.0,51.8,57.9,53.1,48.0,93,82,44,30.13,29.98,0,0,0,27.96
2013-10-18,73.4,63.0,55.2,64.9,59.2,53.2,94,88,71,30.00,29.88,0,0,0,99.06
2013-10-19,70.8,58.5,48.6,63.2,47.7,37.6,95,71,32,30.19,29.98,0,0,0,71.23
2013-10-20,76.2,57.3,44.7,54.4,47.5,42.8,95,74,33,30.10,29.91,0,0,0,43.52
2013-10-21,79.4,66.4,56.8,67.9,61.2,54.1,96,84,66,30.05,29.89,0,0,0,0.00
2013-10-22,77.8,62.3,51.4,55.5,47.5,34.7,88,63,24,30.15,30.04,0,0,0,0.00
2013-10-23,82.7,60.3,45.9,52.8,47.1,38.8,93,68,23,30.18,30.09,0,0,0,0.00
2013-10-24,82.9,61.7,47.4,57.2,51.6,45.3,95,74,27,30.23,30.12,0,0,0,0.00
2013-10-25,81.5,64.5,51.2,63.0,57.2,49.5,96,79,46,30.30,30.18,0,0,0,0.00
2013-10-26,83.3,69.9,62.4,67.0,62.0,59.5,92,77,49,30.21,30.06,0,0,0,0.00
2013-10-27,76.3,68.3,62.9,69.5,64.6,61.0,95,88,70,30.10,29.99,0,0,0,0.19
2013-10-28,85.8,71.1,66.4,69.0,65.2,62.4,94,83,55,30.09,29.96,0,0,0,0.00
2013-10-29,83.1,74.7,68.9,70.7,67.3,65.2,93,79,58,30.07,29.95,0,0,0,0.00
2013-10-30,84.4,77.0,72.5,73.8,71.4,67.7,93,84,65,30.03,29.79,0,0,0,0.00
2013-10-31,84.6,72.2,54.6,72.4,60.9,40.5,95,73,22,29.89,29.78,0,0,0,0.00